Time,TemperatureF,DewpointF,PressureIn,WindDirection,WindDirectionDegrees,WindSpeedMPH,WindSpeedGustMPH,Humidity,HourlyPrecipIn,Conditions,Clouds,dailyrainin,SolarRadiationWatts/m^2,SoftwareType,DateUTC
2013-05-14 00:02:00,65.0,51.0,-100.00,SSW,193,5.0,9.0,60,0.00,,,0.00,0.000000,,2013-05-14 05:02:00,
2013-05-14 00:12:00,65.0,51.0,-100.00,SSW,193,5.0,9.0,60,0.00,,,0.00,0.000000,,2013-05-14 05:12:00,
2013-05-14 00:32:00,63.0,50.0,-100.00,South,190,4.0,9.0,62,0.00,,,0.00,0.000000,,2013-05-14 05:32:00,
2013-05-14 00:42:00,63.0,50.0,-100.00,South,190,4.0,9.0,62,0.00,,,0.00,0.000000,,2013-05-14 05:42:00,
2013-05-14 00:52:00,63.0,50.0,-100.00,South,190,4.0,9.0,62,0.00,,,0.00,0.000000,,2013-05-14 05:52:00,
2013-05-14 01:01:00,63.0,50.0,-100.00,South,190,4.0,9.0,62,0.00,,,0.00,0.000000,,2013-05-14 06:01:00,
2013-05-14 01:12:00,63.0,50.0,-100.00,South,190,4.0,9.0,62,0.00,,,0.00,0.000000,,2013-05-14 06:12:00,
2013-05-14 01:32:00,63.0,50.0,-100.00,SSW,194,5.0,9.0,63,0.00,,,0.00,0.000000,,2013-05-14 06:32:00,
2013-05-14 01:42:00,63.0,50.0,-100.00,SSW,194,5.0,9.0,63,0.00,,,0.00,0.000000,,2013-05-14 06:42:00,
2013-05-14 01:52:00,63.0,50.0,-100.00,SSW,194,5.0,9.0,63,0.00,,,0.00,0.000000,,2013-05-14 06:52:00,
2013-05-14 02:02:00,63.0,50.0,-100.00,SSW,194,5.0,9.0,63,0.00,,,0.00,0.000000,,2013-05-14 07:02:00,
2013-05-14 02:11:00,63.0,50.0,-100.00,SSW,194,5.0,9.0,63,0.00,,,0.00,0.000000,,2013-05-14 07:11:00,
2013-05-14 02:42:00,63.0,51.0,-100.00,SSW,202,5.0,10.0,66,0.00,,,0.00,0.000000,,2013-05-14 07:42:00,
2013-05-14 02:52:00,63.0,51.0,-100.00,SSW,202,5.0,10.0,66,0.00,,,0.00,0.000000,,2013-05-14 07:52:00,
2013-05-14 03:02:00,63.0,51.0,-100.00,SSW,202,5.0,10.0,66,0.00,,,0.00,0.000000,,2013-05-14 08:02:00,
2013-05-14 03:11:00,63.0,51.0,-100.00,SSW,202,5.0,10.0,66,0.00,,,0.00,0.000000,,2013-05-14 08:11:00,
2013-05-14 03:42:00,64.0,52.0,-100.00,SSW,202,6.0,10.0,66,0.00,,,0.00,0.000000,,2013-05-14 08:42:00,
2013-05-14 03:52:00,64.0,52.0,-100.00,SSW,202,6.0,10.0,66,0.00,,,0.00,0.000000,,2013-05-14 08:52:00,
2013-05-14 04:02:00,64.0,52.0,-100.00,SSW,202,6.0,10.0,66,0.00,,,0.00,0.000000,,2013-05-14 09:02:00,
2013-05-14 04:11:00,64.0,52.0,-100.00,SSW,202,6.0,10.0,66,0.00,,,0.00,0.000000,,2013-05-14 09:11:00,
2013-05-14 04:13:00,67.0,53.0,-100.00,SW,223,9.0,16.0,60,0.00,,,0.00,0.000000,,2013-05-14 09:13:00,
2013-05-14 04:33:00,67.0,53.0,-100.00,SW,223,9.0,16.0,60,0.00,,,0.00,0.000000,,2013-05-14 09:33:00,
2013-05-14 04:44:00,67.0,53.0,-100.00,SW,223,9.0,16.0,60,0.00,,,0.00,0.000000,,2013-05-14 09:44:00,
2013-05-14 04:54:00,67.0,53.0,-100.00,SW,223,9.0,16.0,60,0.00,,,0.00,0.000000,,2013-05-14 09:54:00,
2013-05-14 05:04:00,67.0,53.0,-100.00,SW,223,9.0,16.0,60,0.00,,,0.00,0.000000,,2013-05-14 10:04:00,
2013-05-14 05:33:00,67.0,51.0,-100.00,SW,219,10.0,17.0,56,0.00,,,0.00,0.000000,,2013-05-14 10:33:00,
2013-05-14 05:42:00,67.0,51.0,-100.00,SW,219,10.0,17.0,56,0.00,,,0.00,0.000000,,2013-05-14 10:42:00,
2013-05-14 05:52:00,67.0,51.0,-100.00,SW,219,10.0,17.0,56,0.00,,,0.00,0.000000,,2013-05-14 10:52:00,
2013-05-14 06:02:00,67.0,51.0,-100.00,SW,219,10.0,17.0,56,0.00,,,0.00,0.000000,,2013-05-14 11:02:00,
2013-05-14 06:11:00,67.0,51.0,-100.00,SW,219,10.0,17.0,56,0.00,,,0.00,0.000000,,2013-05-14 11:11:00,
2013-05-14 06:32:00,67.0,50.0,-100.00,SW,224,11.0,19.0,55,0.00,,,0.00,3.000000,,2013-05-14 11:32:00,
2013-05-14 06:43:00,67.0,50.0,-100.00,SW,224,11.0,19.0,55,0.00,,,0.00,3.000000,,2013-05-14 11:43:00,
2013-05-14 06:53:00,67.0,50.0,-100.00,SW,224,11.0,19.0,55,0.00,,,0.00,3.000000,,2013-05-14 11:53:00,
2013-05-14 07:02:00,67.0,50.0,-100.00,SW,224,11.0,19.0,55,0.00,,,0.00,3.000000,,2013-05-14 12:02:00,
2013-05-14 07:12:00,67.0,50.0,-100.00,SW,224,11.0,19.0,55,0.00,,,0.00,3.000000,,2013-05-14 12:12:00,
2013-05-14 07:42:00,68.0,49.0,-100.00,SW,222,11.0,18.0,51,0.00,,,0.00,103.000000,,2013-05-14 12:42:00,
2013-05-14 07:52:00,68.0,49.0,-100.00,SW,222,11.0,18.0,51,0.00,,,0.00,103.000000,,2013-05-14 12:52:00,
2013-05-14 08:01:00,68.0,49.0,-100.00,SW,222,11.0,18.0,51,0.00,,,0.00,103.000000,,2013-05-14 13:01:00,
2013-05-14 08:11:00,68.0,49.0,-100.00,SW,222,11.0,18.0,51,0.00,,,0.00,103.000000,,2013-05-14 13:11:00,
2013-05-14 08:42:00,71.0,50.0,-100.00,WSW,237,14.0,21.0,47,0.00,,,0.00,309.000000,,2013-05-14 13:42:00,
2013-05-14 08:52:00,71.0,50.0,-100.00,WSW,237,14.0,21.0,47,0.00,,,0.00,309.000000,,2013-05-14 13:52:00,
2013-05-14 09:01:00,71.0,50.0,-100.00,WSW,237,14.0,21.0,47,0.00,,,0.00,309.000000,,2013-05-14 14:01:00,
2013-05-14 09:11:00,71.0,50.0,-100.00,WSW,237,14.0,21.0,47,0.00,,,0.00,309.000000,,2013-05-14 14:11:00,
2013-05-14 09:32:00,75.0,50.0,-100.00,WSW,243,12.0,25.0,41,0.00,,,0.00,502.000000,,2013-05-14 14:32:00,
2013-05-14 09:42:00,75.0,50.0,-100.00,WSW,243,12.0,25.0,41,0.00,,,0.00,502.000000,,2013-05-14 14:42:00,
2013-05-14 09:52:00,75.0,50.0,-100.00,WSW,243,12.0,25.0,41,0.00,,,0.00,502.000000,,2013-05-14 14:52:00,
2013-05-14 10:01:00,75.0,50.0,-100.00,WSW,243,12.0,25.0,41,0.00,,,0.00,502.000000,,2013-05-14 15:01:00,
2013-05-14 10:12:00,75.0,50.0,-100.00,WSW,243,12.0,25.0,41,0.00,,,0.00,502.000000,,2013-05-14 15:12:00,
2013-05-14 10:33:00,79.0,49.0,-100.00,WSW,249,13.0,22.0,35,0.00,,,0.00,740.000000,,2013-05-14 15:33:00,
2013-05-14 10:43:00,79.0,49.0,-100.00,WSW,249,13.0,22.0,35,0.00,,,0.00,740.000000,,2013-05-14 15:43:00,
2013-05-14 10:53:00,79.0,49.0,-100.00,WSW,249,13.0,22.0,35,0.00,,,0.00,740.000000,,2013-05-14 15:53:00,
2013-05-14 11:02:00,79.0,49.0,-100.00,WSW,249,13.0,22.0,35,0.00,,,0.00,740.000000,,2013-05-14 16:02:00,
2013-05-14 11:12:00,79.0,49.0,-100.00,WSW,249,13.0,22.0,35,0.00,,,0.00,740.000000,,2013-05-14 16:12:00,
2013-05-14 11:13:00,83.0,48.0,-100.00,SW,236,15.0,28.0,30,0.00,,,0.00,916.000000,,2013-05-14 16:13:00,
2013-05-14 11:33:00,83.0,48.0,-100.00,SW,236,15.0,28.0,30,0.00,,,0.00,916.000000,,2013-05-14 16:33:00,
2013-05-14 11:44:00,83.0,48.0,-100.00,SW,236,15.0,28.0,30,0.00,,,0.00,916.000000,,2013-05-14 16:44:00,
2013-05-14 11:54:00,83.0,48.0,-100.00,SW,236,15.0,28.0,30,0.00,,,0.00,916.000000,,2013-05-14 16:54:00,
2013-05-14 12:03:00,83.0,48.0,-100.00,SW,236,15.0,28.0,30,0.00,,,0.00,916.000000,,2013-05-14 17:03:00,
2013-05-14 12:33:00,86.0,49.0,-100.00,SW,235,14.0,27.0,28,0.00,,,0.00,1051.000000,,2013-05-14 17:33:00,
2013-05-14 12:43:00,86.0,49.0,-100.00,SW,235,14.0,27.0,28,0.00,,,0.00,1051.000000,,2013-05-14 17:43:00,
2013-05-14 12:52:00,86.0,49.0,-100.00,SW,235,14.0,27.0,28,0.00,,,0.00,1051.000000,,2013-05-14 17:52:00,
2013-05-14 13:02:00,86.0,49.0,-100.00,SW,235,14.0,27.0,28,0.00,,,0.00,1051.000000,,2013-05-14 18:02:00,
2013-05-14 13:12:00,86.0,49.0,-100.00,SW,235,14.0,27.0,28,0.00,,,0.00,1051.000000,,2013-05-14 18:12:00,
2013-05-14 13:42:00,87.0,45.0,-100.00,WSW,244,17.0,26.0,23,0.00,,,-99.99,1100.000000,,2013-05-14 18:42:00,
2013-05-14 13:52:00,87.0,45.0,-100.00,WSW,244,17.0,26.0,23,0.00,,,-99.99,1100.000000,,2013-05-14 18:52:00,
2013-05-14 14:01:00,87.0,45.0,-100.00,WSW,244,17.0,26.0,23,0.00,,,-99.99,1100.000000,,2013-05-14 19:01:00,
2013-05-14 14:12:00,87.0,45.0,-100.00,WSW,244,17.0,26.0,23,0.00,,,-99.99,1100.000000,,2013-05-14 19:12:00,
2013-05-14 14:42:00,90.0,47.0,-100.00,WSW,237,14.0,29.0,23,0.00,,,0.00,1095.000000,,2013-05-14 19:42:00,
2013-05-14 14:53:00,90.0,47.0,-100.00,WSW,237,14.0,29.0,23,0.00,,,0.00,1095.000000,,2013-05-14 19:53:00,
2013-05-14 15:02:00,90.0,47.0,-100.00,WSW,237,14.0,29.0,23,0.00,,,0.00,1095.000000,,2013-05-14 20:02:00,
2013-05-14 15:11:00,90.0,47.0,-100.00,WSW,237,14.0,29.0,23,0.00,,,0.00,1095.000000,,2013-05-14 20:11:00,
2013-05-14 15:44:00,91.0,48.0,-100.00,SW,230,14.0,22.0,23,0.00,,,0.00,1018.000000,,2013-05-14 20:44:00,
2013-05-14 15:52:00,91.0,48.0,-100.00,SW,230,14.0,22.0,23,0.00,,,0.00,1018.000000,,2013-05-14 20:52:00,
2013-05-14 16:03:00,91.0,48.0,-100.00,SW,230,14.0,22.0,23,0.00,,,0.00,1018.000000,,2013-05-14 21:03:00,
2013-05-14 16:12:00,91.0,48.0,-100.00,SW,230,14.0,22.0,23,0.00,,,0.00,1018.000000,,2013-05-14 21:12:00,
2013-05-14 17:45:00,90.0,47.0,-100.00,SW,226,13.0,25.0,23,-99.99,,,-99.99,698.000000,,2013-05-14 22:45:00,
2013-05-14 17:54:00,90.0,47.0,-100.00,SW,226,13.0,25.0,23,-99.99,,,-99.99,698.000000,,2013-05-14 22:54:00,
2013-05-14 18:03:00,90.0,47.0,-100.00,SW,226,13.0,25.0,23,-99.99,,,-99.99,698.000000,,2013-05-14 23:03:00,
2013-05-14 18:12:00,90.0,47.0,-100.00,SW,226,13.0,25.0,23,-99.99,,,-99.99,698.000000,,2013-05-14 23:12:00,
2013-05-14 18:32:00,89.0,46.0,-100.00,SW,230,12.0,29.0,23,0.00,,,0.00,453.000000,,2013-05-14 23:32:00,
2013-05-14 18:44:00,89.0,46.0,-100.00,SW,230,12.0,29.0,23,0.00,,,0.00,453.000000,,2013-05-14 23:44:00,
2013-05-14 18:53:00,89.0,46.0,-100.00,SW,230,12.0,29.0,23,0.00,,,0.00,453.000000,,2013-05-14 23:53:00,
2013-05-14 19:02:00,89.0,46.0,-100.00,SW,230,12.0,29.0,23,0.00,,,0.00,453.000000,,2013-05-15 00:02:00,
2013-05-14 19:11:00,89.0,46.0,-100.00,SW,230,12.0,29.0,23,0.00,,,0.00,453.000000,,2013-05-15 00:11:00,
2013-05-14 20:32:00,81.0,47.0,-100.00,SW,222,8.0,18.0,30,-99.99,,,0.00,30.000000,,2013-05-15 01:32:00,
2013-05-14 20:42:00,81.0,47.0,-100.00,SW,222,8.0,18.0,30,-99.99,,,0.00,30.000000,,2013-05-15 01:42:00,
2013-05-14 20:52:00,81.0,47.0,-100.00,SW,222,8.0,18.0,30,-99.99,,,0.00,30.000000,,2013-05-15 01:52:00,
2013-05-14 21:02:00,81.0,47.0,-100.00,SW,222,8.0,18.0,30,-99.99,,,0.00,30.000000,,2013-05-15 02:02:00,
2013-05-14 21:11:00,81.0,47.0,-100.00,SW,222,8.0,18.0,30,-99.99,,,0.00,30.000000,,2013-05-15 02:11:00,
2013-05-14 21:32:00,79.0,48.0,-100.00,SW,217,9.0,16.0,34,0.00,,,0.00,1.000000,,2013-05-15 02:32:00,
2013-05-14 21:42:00,79.0,48.0,-100.00,SW,217,9.0,16.0,34,0.00,,,0.00,1.000000,,2013-05-15 02:42:00,
2013-05-14 21:52:00,79.0,48.0,-100.00,SW,217,9.0,16.0,34,0.00,,,0.00,1.000000,,2013-05-15 02:52:00,
2013-05-14 22:01:00,79.0,48.0,-100.00,SW,217,9.0,16.0,34,0.00,,,0.00,1.000000,,2013-05-15 03:01:00,
2013-05-14 22:12:00,79.0,48.0,-100.00,SW,217,9.0,16.0,34,0.00,,,0.00,1.000000,,2013-05-15 03:12:00,
2013-05-14 22:44:00,76.0,44.0,-100.00,SW,222,7.0,17.0,32,0.00,,,0.00,0.000000,,2013-05-15 03:44:00,
2013-05-14 22:54:00,76.0,44.0,-100.00,SW,222,7.0,17.0,32,0.00,,,0.00,0.000000,,2013-05-15 03:54:00,
2013-05-14 23:03:00,76.0,44.0,-100.00,SW,222,7.0,17.0,32,0.00,,,0.00,0.000000,,2013-05-15 04:03:00,
2013-05-14 23:12:00,76.0,44.0,-100.00,SW,222,7.0,17.0,32,0.00,,,0.00,0.000000,,2013-05-15 04:12:00,
2013-05-14 23:33:00,74.0,48.0,-100.00,SSW,212,8.0,15.0,40,0.00,,,0.00,0.000000,,2013-05-15 04:33:00,
2013-05-14 23:43:00,74.0,48.0,-100.00,SSW,212,8.0,15.0,40,0.00,,,0.00,0.000000,,2013-05-15 04:43:00,
2013-05-14 23:52:00,74.0,48.0,-100.00,SSW,212,8.0,15.0,40,0.00,,,0.00,0.000000,,2013-05-15 04:52:00,